Date,TemperatureHighF,TemperatureAvgF,TemperatureLowF,DewpointHighF,DewpointAvgF,DewpointLowF,HumidityHigh,HumidityAvg,HumidityLow,PressureMaxIn,PressureMinIn,WindSpeedMaxMPH,WindSpeedAvgMPH,GustSpeedMaxMPH,PrecipitationSumIn
2013-6-1,88.2,79.2,72.7,70.1,69.2,68.3,90,72,54,30.11,30.04,11,5,11,0.00
2013-6-2,94.1,78.1,65.1,76.0,70.8,64.9,100,81,43,30.10,29.90,17,4,17,0.01
2013-6-3,90.1,80.2,70.5,77.6,73.8,70.3,100,82,55,29.96,29.85,12,2,12,0.60
2013-6-4,88.3,76.4,66.4,78.6,72.4,66.1,100,88,64,30.04,29.93,14,3,14,0.28
2013-6-5,83.5,74.3,70.2,77.6,73.4,69.5,100,97,81,30.06,29.95,17,4,17,1.28
2013-6-6,82.9,73.8,70.5,77.3,72.5,69.7,100,96,75,29.97,29.73,14,3,14,0.94
2013-6-7,88.3,75.4,70.5,77.3,72.5,70.3,100,91,66,29.88,29.55,17,5,17,1.26
2013-6-8,89.6,77.3,69.6,73.7,71.2,69.4,100,83,54,30.09,29.85,14,2,14,0.00
2013-6-9,87.1,74.0,69.4,81.6,72.9,69.2,100,96,75,30.16,30.06,27,3,27,0.58
2013-6-10,83.1,75.3,70.3,78.6,74.3,70.1,99,97,81,30.09,29.97,11,3,11,0.80
2013-6-11,93.6,79.0,68.9,78.9,74.2,68.6,100,87,60,30.03,29.93,15,3,15,0.01
2013-6-12,97.5,83.0,68.7,78.8,74.3,68.5,100,79,44,30.01,29.93,8,2,8,0.00
2013-6-13,97.5,84.8,72.5,78.9,74.9,72.0,99,75,46,29.93,29.71,18,3,18,0.04
2013-6-14,87.6,77.6,65.3,75.7,65.6,54.7,100,71,35,30.03,29.77,14,3,14,0.01
2013-6-15,89.8,74.4,57.4,70.3,63.3,57.1,100,72,41,30.14,30.02,11,2,11,0.00
2013-6-16,90.7,76.3,60.1,72.8,67.3,59.8,100,76,50,30.18,30.04,10,2,10,0.00
2013-6-17,93.9,77.5,65.3,75.7,70.9,65.0,100,82,47,30.09,29.95,17,2,17,0.06
2013-6-18,89.4,76.3,70.0,79.1,73.5,69.7,100,91,68,30.02,29.84,23,3,23,0.46
2013-6-19,83.1,74.3,67.3,77.3,71.7,67.0,100,92,71,30.08,29.90,11,2,11,0.01
2013-6-20,86.7,75.7,66.2,71.1,67.8,65.2,100,79,52,30.19,30.07,17,5,17,0.00
2013-6-21,87.6,74.2,61.5,67.3,62.2,56.5,100,71,38,30.24,30.14,16,4,16,0.00
2013-6-22,87.3,75.7,61.7,74.7,69.2,61.4,100,82,61,30.19,30.11,12,2,12,0.00
2013-6-23,89.6,77.0,69.4,77.8,73.7,69.0,100,90,54,30.21,30.13,11,2,11,0.19
2013-6-24,87.3,76.2,69.4,80.4,73.9,69.2,100,93,71,30.23,30.14,9,2,9,0.06
2013-6-25,93.7,77.4,69.1,77.8,72.8,68.8,100,87,56,30.17,30.05,14,2,14,0.01
2013-6-26,91.6,75.8,70.3,81.0,73.3,69.9,100,93,63,30.10,29.95,14,2,14,0.44
2013-6-27,93.4,81.6,72.3,80.5,76.0,72.1,99,84,58,29.98,29.78,18,3,18,0.00
2013-6-28,95.7,83.1,71.2,80.0,75.3,70.6,100,79,54,29.82,29.66,15,3,15,0.04
2013-6-29,89.6,79.1,73.4,77.8,73.8,69.7,100,84,66,29.75,29.67,13,3,13,0.00
2013-6-30,89.8,77.2,70.3,78.1,74.1,70.1,100,91,65,29.86,29.73,15,3,15,0.21
2013-7-1,84.2,74.9,69.4,77.7,73.2,69.2,100,95,75,29.99,29.82,11,3,11,0.27
2013-7-2,77.7,71.3,-8.5,77.1,71.2,-8.6,100,98,93,30.13,29.99,54,4,54,0.56
2013-7-3,82.9,76.2,72.5,79.7,75.4,72.2,100,97,82,30.26,30.06,12,4,12,0.13
2013-7-4,89.6,78.6,73.6,79.7,75.8,71.6,100,92,68,30.31,30.13,17,5,17,0.20
2013-7-5,85.6,77.3,71.8,82.3,76.0,71.5,100,96,80,30.25,30.18,12,3,12,0.90
2013-7-6,88.0,77.4,72.0,79.9,75.6,71.7,100,94,71,30.24,30.13,14,4,14,0.31
2013-7-7,91.8,80.7,73.2,80.3,76.0,73.0,99,86,64,30.20,30.09,12,3,12,0.00
2013-7-8,90.0,78.0,72.9,80.0,75.9,72.6,100,94,69,30.22,30.14,8,1,8,0.05
2013-7-9,92.7,80.2,71.8,80.6,76.4,71.5,100,89,63,30.20,30.09,11,2,11,0.02
2013-7-10,90.3,79.8,72.1,78.8,75.7,71.9,100,88,65,30.14,29.99,12,2,12,0.00
2013-7-11,91.9,78.4,71.4,78.3,74.7,71.2,100,89,62,30.01,29.89,16,3,16,0.66
2013-7-12,86.9,76.2,68.0,78.4,73.4,64.8,100,92,73,29.98,29.87,18,2,18,0.57
2013-7-13,83.1,74.3,68.2,76.9,72.9,67.9,100,95,79,30.08,29.96,11,4,11,0.60
2013-7-14,87.4,77.1,72.0,79.5,75.3,71.7,100,94,73,30.25,30.07,21,6,21,0.64
2013-7-15,88.5,77.9,72.1,80.0,76.0,71.9,100,94,72,30.29,30.23,17,4,17,0.28
2013-7-16,92.3,79.8,67.8,79.4,73.9,67.6,100,84,56,30.32,30.23,11,2,11,0.00
2013-7-17,95.4,77.8,70.0,82.5,73.4,66.6,100,88,55,30.25,30.12,14,2,14,0.06
2013-7-18,93.6,80.6,68.4,78.8,74.7,68.1,100,84,56,30.21,30.07,7,2,7,0.00
2013-7-19,91.4,80.7,70.9,80.1,75.2,70.6,100,85,58,30.15,30.01,15,2,15,0.00
2013-7-20,88.7,79.6,73.6,77.8,74.9,73.2,100,87,64,30.10,29.97,11,3,11,0.00
2013-7-21,90.3,80.0,74.8,81.8,76.8,74.6,100,90,68,30.06,29.95,15,2,15,0.13
2013-7-22,90.5,79.9,72.9,77.8,75.1,72.4,100,86,61,30.03,29.89,12,3,12,0.00
2013-7-23,92.5,81.8,73.0,76.8,74.6,70.8,100,81,51,29.94,29.81,14,4,14,0.00
2013-7-24,91.2,77.1,71.2,80.5,74.5,70.7,100,92,68,29.85,29.78,17,2,17,0.24
2013-7-25,92.7,79.2,69.6,77.5,73.1,69.4,100,84,54,30.01,29.81,11,2,11,0.00
2013-7-26,91.4,79.3,68.5,76.0,73.1,68.3,100,83,55,30.10,30.00,9,3,9,0.00
2013-7-27,88.5,78.6,72.0,80.2,75.3,69.1,100,90,68,30.06,29.92,19,3,19,0.01
2013-7-28,93.6,80.1,69.8,77.0,73.4,69.5,99,82,51,30.04,29.94,12,2,12,0.00
2013-7-29,92.3,78.1,70.3,78.8,75.1,70.1,100,91,59,30.17,30.02,11,2,11,0.05
2013-7-30,91.6,78.4,68.0,78.9,73.7,67.7,100,87,55,30.21,30.13,11,2,11,0.00
2013-7-31,85.1,75.7,70.5,81.9,74.8,70.3,100,97,82,30.16,30.01,11,2,11,0.08
2013-8-1,88.7,77.2,71.6,80.3,75.7,71.3,100,95,69,30.03,29.92,10,2,10,0.57
2013-8-2,90.3,78.8,72.9,81.6,76.8,72.6,100,94,70,30.06,29.93,7,2,7,0.00
2013-8-3,80.1,78.0,72.3,79.8,77.7,72.1,99,99,99,30.05,30.01,4,2,4,0.00
2013-8-4,93.9,83.9,74.7,79.8,76.6,72.0,100,81,52,30.04,29.93,11,2,11,0.00
2013-8-5,90.0,79.7,72.5,77.1,72.3,66.4,100,80,53,30.08,29.99,14,4,14,0.00
2013-8-6,86.7,75.0,67.6,78.8,72.2,66.7,100,91,68,30.07,29.98,21,3,21,1.42
2013-8-7,89.2,78.4,71.1,78.0,73.3,70.2,100,86,58,30.10,30.02,11,3,11,0.01
2013-8-8,92.3,80.5,69.1,78.2,74.1,68.6,100,83,54,30.09,30.01,10,2,10,0.00
2013-8-9,93.4,80.7,72.3,80.0,75.9,71.9,100,87,58,30.13,30.03,15,2,15,0.00
2013-8-10,96.4,83.1,71.8,80.5,75.6,71.5,100,81,51,30.15,30.06,9,2,9,0.00
2013-8-11,97.0,84.0,73.9,79.9,75.5,72.3,100,79,46,30.16,30.05,12,2,12,0.00
2013-8-12,97.9,82.5,71.6,80.1,75.6,71.3,100,82,48,30.10,29.98,10,2,10,0.00
2013-8-13,97.0,82.9,73.8,81.8,76.3,73.5,100,82,48,30.00,29.84,14,2,14,0.01
2013-8-14,82.9,75.9,71.6,77.8,72.4,68.6,100,90,64,30.05,29.88,13,2,13,0.02
2013-8-15,71.6,67.6,63.3,71.6,66.7,63.1,100,97,80,30.12,30.02,19,5,19,0.69
2013-8-16,68.7,66.1,64.2,68.5,65.9,64.0,99,99,99,30.13,30.05,13,4,13,1.12
2013-8-17,71.2,67.6,64.9,71.3,67.3,64.7,100,99,99,30.18,30.08,9,2,9,0.14
2013-8-18,88.0,74.8,68.4,78.7,72.5,68.1,100,93,66,30.22,30.12,9,2,9,0.40
2013-8-19,82.8,74.4,70.9,80.3,73.9,70.6,100,98,86,30.19,30.08,9,2,9,0.48
2013-8-20,87.1,76.4,71.2,81.7,75.1,71.0,100,96,77,30.19,30.10,15,3,15,0.35
2013-8-21,92.3,77.8,68.9,81.1,73.7,68.6,100,89,59,30.25,30.12,10,2,10,0.12
2013-8-22,93.6,79.2,68.9,80.0,73.5,68.6,100,85,51,30.18,30.03,9,2,9,1.02
2013-8-23,90.7,78.4,68.7,78.4,73.7,68.5,100,87,62,30.08,29.98,10,2,10,0.01
2013-8-24,84.4,74.5,68.2,73.3,70.8,67.9,100,89,61,30.26,30.03,15,3,15,0.00
2013-8-25,84.4,72.4,59.5,68.8,62.3,55.1,100,75,39,30.37,29.97,15,4,15,0.00
2013-8-26,85.8,69.3,54.1,66.5,60.1,53.9,100,77,40,30.31,30.15,10,2,10,0.00
2013-8-27,89.8,72.9,56.5,74.5,64.2,56.2,100,78,41,30.17,30.02,9,1,9,0.00
2013-8-28,92.8,77.5,64.4,75.8,69.5,64.1,100,80,41,30.05,29.96,8,1,8,0.00
2013-8-29,96.6,81.1,68.4,77.6,72.1,68.1,100,78,42,29.99,29.89,8,2,8,0.00
2013-8-30,88.7,78.0,70.2,76.3,73.0,67.1,100,86,53,30.06,29.95,11,3,11,0.00
2013-8-31,90.7,75.5,66.9,79.2,72.3,66.5,100,91,55,30.01,29.89,17,2,17,0.35
2013-9-1,93.2,80.6,71.4,82.5,74.4,71.2,100,84,52,29.96,29.83,9,2,9,0.12
2013-9-2,95.7,80.8,71.1,79.1,73.3,69.6,99,81,49,29.95,29.83,11,2,11,0.01
2013-9-3,92.8,79.4,70.3,78.0,72.5,63.6,100,82,43,29.99,29.86,11,2,11,0.00
2013-9-4,96.3,79.7,67.8,77.4,71.4,65.5,100,79,38,30.09,29.96,8,1,8,0.00
2013-9-5,93.4,79.7,68.2,77.2,68.5,58.9,100,75,33,30.12,30.04,9,2,9,0.00
2013-9-6,89.2,75.0,63.3,71.5,66.0,59.5,100,78,39,30.15,30.06,11,2,11,0.00
2013-9-7,90.1,74.1,59.5,71.1,63.5,57.1,100,75,33,30.13,30.00,11,2,11,0.00
2013-9-8,93.4,75.2,60.1,73.2,64.6,59.3,100,75,34,30.03,29.93,8,1,8,0.00
2013-9-9,93.0,77.3,62.6,75.3,66.6,57.9,99,74,32,30.15,29.99,10,2,10,0.00
2013-9-10,91.4,77.7,63.7,76.0,68.4,61.6,100,78,39,30.26,30.15,12,2,12,0.00
2013-9-11,92.3,75.0,59.9,75.4,64.6,58.0,100,76,34,30.23,30.10,11,2,11,0.00
2013-9-12,93.6,76.3,64.0,73.7,67.0,60.3,99,78,35,30.12,29.89,11,1,11,0.00
2013-9-13,94.3,77.6,66.9,74.2,65.7,52.3,100,73,28,29.91,29.78,11,2,11,0.00
2013-9-14,83.7,72.4,62.2,63.9,56.0,49.0,89,58,41,30.09,29.86,15,4,15,0.00
2013-9-15,89.2,76.0,63.7,73.6,65.9,60.8,97,73,45,30.18,30.08,12,4,12,0.00
2013-9-16,88.3,78.6,72.7,79.0,73.5,67.8,100,86,53,30.15,30.05,13,2,13,0.09
2013-9-17,73.4,72.9,72.5,73.2,72.7,72.2,99,99,99,30.12,30.11,6,1,6,0.00
2013-9-25,76.3,69.2,63.0,64.9,60.7,55.0,97,77,50,29.92,29.86,15,4,15,0.22
2013-9-26,81.1,68.2,60.4,64.5,60.2,52.4,100,79,38,30.02,29.88,12,3,12,0.01
2013-9-27,81.0,67.3,57.2,58.1,54.8,48.4,92,68,33,30.16,30.02,19,4,19,0.00
2013-9-28,78.3,65.5,54.7,58.3,53.6,49.2,93,69,41,30.23,30.14,17,4,17,0.00
2013-9-29,76.6,64.5,54.0,58.1,53.6,49.1,93,71,39,30.16,30.05,14,2,14,0.00
2013-9-30,78.4,62.3,48.4,59.7,51.7,47.6,100,74,36,30.11,30.03,9,1,9,0.00
2013-10-1,84.0,64.8,48.6,59.8,52.5,47.1,100,71,28,30.18,30.06,14,2,14,0.00
2013-10-2,87.4,67.3,50.9,64.1,56.4,50.1,97,74,31,30.17,30.07,8,1,8,0.00
2013-10-3,88.2,70.8,56.3,64.9,57.5,47.7,100,69,26,30.15,30.07,10,2,10,0.00
2013-10-4,89.4,70.7,57.6,69.5,61.3,56.9,100,77,35,30.16,30.07,9,1,9,0.00
2013-10-5,88.9,76.4,56.1,67.7,58.4,55.3,100,61,34,30.14,30.08,10,4,10,0.00
2013-10-6,88.9,86.7,72.7,71.9,59.1,56.9,95,42,34,30.10,29.91,8,6,10,0.00
2013-10-7,77.7,74.5,70.7,75.2,72.9,69.5,100,95,89,29.94,29.82,10,2,10,0.07
2013-10-8,70.5,62.6,56.8,69.4,55.4,51.6,96,78,63,30.15,29.91,18,6,18,0.02
2013-10-9,78.3,64.8,55.2,56.4,52.5,48.6,93,66,42,30.17,30.07,15,4,15,0.00
2013-10-10,79.3,62.5,47.5,56.5,50.8,43.1,100,71,30,30.10,29.98,17,3,17,0.00
2013-10-11,86.0,70.2,60.3,61.6,57.5,51.4,91,68,32,30.02,29.92,13,2,13,0.00
2013-10-12,83.8,68.3,53.4,65.0,58.6,52.6,97,74,43,30.07,29.95,11,1,11,0.00
2013-10-13,77.7,68.9,60.8,64.8,62.3,59.4,97,80,58,30.17,30.07,11,3,11,0.00
2013-10-14,72.0,67.2,64.4,63.6,62.4,61.0,93,85,72,30.19,30.12,13,4,13,0.00
2013-10-15,79.7,66.7,54.1,61.0,52.1,37.5,91,65,22,30.16,30.02,17,4,17,0.00
2013-10-16,81.3,64.4,49.8,62.3,56.3,48.5,97,77,46,30.07,29.96,14,2,14,0.00
2013-10-17,86.0,72.1,62.1,66.6,62.9,59.8,100,76,43,30.00,29.88,17,2,17,0.00
2013-10-18,77.9,70.8,66.0,70.2,66.8,64.1,96,88,70,30.00,29.90,11,2,11,0.00
2013-10-19,81.5,68.9,62.4,69.3,58.3,44.8,100,73,30,29.96,29.89,13,3,13,0.01
2013-10-20,73.4,62.0,51.4,54.9,49.8,43.9,96,68,36,30.08,29.94,14,3,14,0.00
2013-10-21,73.6,58.4,43.5,54.9,50.0,42.5,100,76,45,30.13,30.01,11,2,11,0.00
2013-10-22,70.3,62.6,56.8,60.7,57.7,54.2,96,85,63,30.04,29.85,7,1,7,0.00
2013-10-23,73.4,62.4,47.1,60.9,41.4,11.4,100,56,10,30.06,29.77,27,7,27,0.00
2013-10-24,68.5,48.5,31.5,39.9,32.0,24.2,92,60,19,30.22,30.06,11,2,11,0.00
2013-10-25,61.5,47.2,32.0,40.1,32.4,22.8,95,63,23,30.36,30.15,16,3,16,0.00
2013-10-26,66.7,44.2,24.1,35.0,25.8,14.2,94,59,13,30.35,30.13,11,2,11,0.00
2013-10-27,77.4,54.5,36.0,49.5,40.5,32.8,91,64,30,30.14,30.06,11,2,11,0.00
2013-10-28,75.4,59.9,48.7,58.1,50.7,45.7,94,75,40,30.27,30.12,11,1,11,0.00
2013-10-29,79.7,58.8,43.9,57.5,48.2,42.8,97,73,30,30.35,30.24,16,2,16,0.00
2013-10-30,82.6,62.3,46.2,57.2,50.2,44.9,96,70,32,30.32,30.18,11,2,11,0.00
2013-10-31,80.2,65.8,49.5,65.7,57.7,48.0,96,78,37,30.21,29.96,15,2,15,0.00
2013-11-1,79.3,69.9,64.0,67.7,65.3,63.5,100,86,64,29.97,29.75,16,4,16,0.89
2013-11-2,75.0,61.8,45.0,63.8,48.5,36.5,100,68,25,30.00,29.76,17,3,17,0.00
2013-11-3,68.2,50.9,35.8,46.1,37.6,29.3,96,68,24,30.31,29.99,15,3,15,0.00
2013-11-4,65.5,49.3,35.6,40.5,33.7,21.4,96,61,19,30.49,30.30,17,4,17,0.00
2013-11-5,69.4,53.1,39.4,52.2,43.1,32.6,89,70,46,30.48,30.36,14,4,14,0.00
2013-11-6,74.8,60.2,48.0,57.8,52.5,45.8,95,78,53,30.37,30.11,13,3,13,0.00
2013-11-7,77.2,62.1,51.1,63.3,52.5,32.6,100,75,33,30.11,29.95,16,3,16,0.00
2013-11-8,63.5,48.7,30.7,34.2,28.4,11.2,90,52,13,30.32,30.11,14,3,14,0.00
2013-11-9,66.2,46.0,26.6,39.4,28.3,6.7,96,61,10,30.38,30.23,8,1,8,0.00
2013-11-10,73.0,53.6,41.0,45.5,37.4,23.9,87,60,18,30.27,30.16,8,1,8,0.00
2013-11-11,67.5,50.5,34.3,39.9,30.9,18.7,92,53,17,30.34,30.18,16,3,16,0.00
2013-11-12,75.0,49.3,30.2,45.1,30.9,16.7,96,61,11,30.41,30.01,28,5,28,0.04
2013-11-13,50.4,35.9,22.6,30.7,18.2,-1.0,87,55,13,30.55,30.40,18,4,18,0.00
2013-11-14,62.2,37.4,16.7,28.7,16.3,-0.5,90,57,10,30.51,30.33,9,1,9,0.00
2013-11-15,64.8,50.2,29.8,53.9,42.9,24.4,96,77,58,30.34,30.16,11,2,11,0.01
2013-11-16,77.4,60.0,51.4,59.3,54.6,49.8,100,84,48,30.25,30.14,10,2,10,0.00
2013-11-17,72.9,61.1,45.7,67.6,58.3,44.9,100,91,74,30.18,29.96,8,2,8,0.00
2013-11-18,86.7,72.2,55.4,70.9,54.6,27.3,100,62,21,29.96,29.82,19,4,19,0.02
2013-11-19,63.7,53.0,44.8,31.9,21.5,3.8,59,33,10,30.21,29.95,17,4,17,0.00
2013-11-20,60.3,50.4,39.9,39.8,33.6,26.9,72,53,36,30.37,30.20,15,6,15,0.00
2013-11-21,62.4,55.0,48.7,49.7,44.7,38.3,76,68,60,30.42,30.33,14,4,14,0.00
2013-11-22,77.9,62.8,50.2,61.4,55.6,46.5,95,78,55,30.34,30.13,11,2,11,0.00
2013-11-23,69.1,61.4,49.8,65.0,56.4,34.7,100,85,47,30.15,30.02,11,3,11,0.04
2013-11-24,49.6,39.9,26.1,35.0,14.2,-2.7,58,38,12,30.51,30.15,17,4,17,0.00
2013-11-25,51.3,37.0,18.3,20.4,11.9,-6.2,77,40,12,30.53,30.27,14,5,14,0.00
2013-11-26,69.4,54.0,42.3,68.2,48.3,18.5,100,83,37,30.27,29.56,13,6,16,0.44
2013-11-27,69.4,44.4,26.1,67.0,41.2,22.9,100,89,60,30.22,29.53,21,5,21,0.26
2013-11-28,49.1,32.0,18.3,28.3,22.6,16.9,95,73,31,30.48,30.22,11,2,11,0.00
2013-11-29,57.4,36.8,20.5,37.2,26.0,19.1,95,71,25,30.54,30.45,14,2,14,0.00
2013-11-30,53.1,43.1,31.3,34.7,30.3,25.5,85,62,41,30.57,30.33,14,4,14,0.00
2013-12-1,61.2,48.6,38.5,45.5,39.6,33.5,92,72,49,30.34,30.00,8,1,8,0.00
2013-12-2,63.0,51.1,43.7,47.6,42.6,36.5,95,75,39,30.00,29.83,11,2,11,0.00
2013-12-3,63.0,55.3,47.7,58.3,51.7,44.5,100,88,73,29.97,29.86,8,1,8,0.38
2013-12-4,70.3,61.6,57.2,64.1,59.9,57.1,100,95,76,30.08,29.94,9,2,9,0.43
2013-12-5,69.8,64.2,59.4,66.7,63.3,59.1,100,97,86,30.14,30.06,9,2,9,0.01
2013-12-6,81.3,69.7,61.9,68.0,64.3,61.6,100,84,58,30.13,30.03,12,3,12,0.01
2013-12-7,69.1,59.6,45.3,68.4,58.0,43.9,100,94,82,30.35,30.05,17,4,17,0.26
2013-12-8,45.3,42.3,39.4,44.8,41.9,39.1,100,98,95,30.36,30.25,13,5,13,0.20
2013-12-9,55.6,47.5,39.2,55.3,47.2,38.9,99,99,99,30.25,30.03,9,2,9,0.06
2013-12-10,68.0,56.7,38.1,67.7,49.9,23.1,99,80,41,30.32,29.93,24,5,24,0.14
2013-12-11,56.5,39.4,25.0,35.8,28.0,20.2,95,69,27,30.44,30.29,11,2,11,0.00
2013-12-12,55.0,37.5,25.5,35.8,24.6,2.0,100,69,12,30.40,30.26,11,2,11,0.00
2013-12-13,59.0,39.2,21.6,36.5,24.4,7.8,94,64,14,30.39,30.23,11,1,11,0.00
2013-12-14,64.6,53.6,45.1,64.6,48.8,33.8,100,84,62,30.23,29.81,16,4,17,0.64
2013-12-15,56.1,49.3,36.5,53.3,43.6,32.7,99,82,57,30.13,29.76,21,5,21,0.05
2013-12-16,62.6,41.9,28.2,37.6,31.4,26.5,97,72,26,30.22,30.12,11,2,11,0.00
2013-12-17,65.8,48.8,31.8,36.9,31.0,24.1,92,56,21,30.19,30.04,15,2,15,0.00
2013-12-18,56.7,43.7,28.0,34.3,25.5,6.3,91,56,14,30.31,30.07,12,2,12,0.00
2013-12-19,64.0,42.3,24.1,39.6,27.7,11.8,95,67,13,30.37,30.23,9,1,9,0.00
2013-12-20,72.1,51.8,36.0,54.9,44.5,34.7,96,79,43,30.26,30.15,12,1,12,0.00
2013-12-21,80.2,63.2,45.7,67.1,57.1,44.6,100,83,52,30.16,30.02,16,3,16,0.00
2013-12-22,79.7,71.9,64.9,68.6,66.2,63.6,100,83,60,30.10,30.02,17,4,17,0.18
2013-12-23,69.3,63.0,55.2,68.6,62.1,52.3,100,97,90,30.13,30.03,14,3,14,0.43
2013-12-24,57.4,48.6,34.2,52.7,35.8,22.4,93,64,28,30.38,30.10,18,5,18,0.00
2013-12-25,47.1,37.7,25.3,23.2,18.7,14.0,69,48,28,30.51,30.35,12,4,12,0.00
2013-12-26,53.2,43.5,30.7,38.4,30.9,20.6,95,63,43,30.36,30.24,7,2,7,0.01
2013-12-27,54.9,39.4,28.0,33.4,27.2,20.5,100,67,27,30.44,30.31,11,2,11,0.00
2013-12-28,56.3,41.1,24.4,42.0,31.3,23.2,96,73,35,30.40,30.15,8,2,8,0.05
2013-12-29,63.5,52.5,45.9,63.2,47.7,42.0,99,84,67,30.15,29.80,17,5,23,1.52
2013-12-30,57.0,47.4,39.6,45.8,42.5,38.4,100,84,54,30.14,29.95,7,2,7,0.00
2013-12-31,57.0,47.6,35.4,44.9,38.0,27.1,92,72,33,30.35,30.12,13,4,13,0.00
2014-1-1,50.5,42.1,32.5,41.0,37.3,31.0,100,84,66,30.36,30.12,6,1,6,0.00
2014-1-2,53.2,46.8,37.4,53.2,44.5,24.4,100,92,58,30.12,29.67,28,4,28,0.27